Location: Darmstadt
(49.8706°N, 8.6494°E)
Time: 07:04:19
(UTC+01:00)

Cosmos 1300 - Pass Details

Date: 31 October 2020
Orbit: 511 x 514 km, 82.5° (Epoch: 03 December)

Event Time Altitude Azimuth Distance (km) Brightness Sun altitude
Rises 17:33:11 0° 180° (S) 2,618 6.5 -5.3°
Reaches altitude 10° 17:35:19 10° 176° (S) 1,737 5.5 -5.7°
Maximum altitude 17:39:04 61° 97° (E) 590 2.7 -6.3°
Drops below altitude 10° 17:42:52 10° 16° (NNE) 1,752 5.1 -6.8°
Sets 17:45:01 0° 13° (NNE) 2,645 6.0 -7.2°
